Regional Weather Roundup
Issued by NWS Green Bay, WI

Home | Current Version | Previous Version | Text Only | Print | Product List | Glossary On
Versions: 1 2 3 4 5 6 7 8 9 10 11 12 13 14 15 16 17 18 19 20 21 22 23 24 25 26 27 28 29 30 31 32 33 34 35 36 37 38 39 40 41 42 43 44 45 46 47 48 49 50
000
ASUS43 KGRB 251511
RWRGRB

NORTH-CENTRAL AND NORTHEAST WISCONSIN REGIONAL WEATHER ROUNDUP
NATIONAL WEATHER SERVICE GREEN BAY WI
1000 AM CDT SUN JUN 25 2017

WIZ005-009-010>012-018-019-251600-
NORTH CENTRAL WISCONSIN

CITY           SKY/WX    TMP DP  RH WIND       PRES   REMARKS
IRONWOOD       CLOUDY    55  52  89 W7        30.03S
MANITOWISH WTR CLOUDY    57  54  89 W9        30.02F
ARBOR VITAE    CLOUDY    57  52  83 W3        30.02S
EAGLE RIVER    CLOUDY    56  49  76 NW5       30.02S
LAND O LAKES   CLOUDY    56  50  79 NW6       30.04S
RHINELANDER    CLOUDY    57  52  83 W10       30.03S
PHILLIPS       CLOUDY    54  52  93 W5        30.04S
ANTIGO         CLOUDY    58  52  80 NW14G20   30.03S
TOMAHAWK       NOT AVBL
MERRILL        CLOUDY    56  51  84 W8        30.05S
$$

WIZ013-073-251600-
NORTHEAST WISCONSIN

CITY           SKY/WX    TMP DP  RH WIND       PRES   REMARKS
IRON MOUNTAIN  CLOUDY    59  50  72 NW8       29.99R
MARINETTE      SUNNY     62  52  69 VRB7      29.99S
OCONTO         CLOUDY    60  51  71 NW5       30.00S
$$

WIZ017-030-035>037-045-251600-
CENTRAL WISCONSIN

CITY           SKY/WX    TMP DP  RH WIND       PRES   REMARKS
MEDFORD        CLOUDY    54  50  86 W12       30.05S
WAUSAU         CLOUDY    56  49  77 NW13      30.04R
MOSINEE        CLOUDY    55  52  88 W9        30.07R
MARSHFIELD     CLOUDY    54  49  83 W13       30.07R
WISC RAPIDS    CLOUDY    56  50  80 W9        30.09R
STEVENS POINT  PTSUNNY   56  49  78 W8        30.06S
WAUPACA        MOSUNNY   64  54  69 W7        30.04S
SHAWANO        CLOUDY    64  54  68 NW8       30.01S
CLINTONVILLE   CLOUDY    61  50  67 W8        30.02F
WAUTOMA        CLOUDY    60  50  69 W16       30.07S
$$

WIZ038-039-048-051-251600-
FOX VALLEY

CITY           SKY/WX    TMP DP  RH WIND       PRES   REMARKS
NWS GREEN BAY  PTSUNNY   63  53  70 NW13      30.01S
APPLETON       PTSUNNY   57  48  72 NW9       30.02R
OSHKOSH        SUNNY     63  52  67 W12G18    30.03S
FOND DU LAC    SUNNY     64  49  57 W16       30.04S
$$

WIZ022-050-052-251600-
EAST CENTRAL WISCONSIN

CITY           SKY/WX    TMP DP  RH WIND       PRES   REMARKS
EPHRAIM        FAIR      60  51  72 NW8       29.97R
WASHINGTON ISL CLOUDY    57  52  83 NW5       29.97R
STURGEON BAY     N/A     58  51  78 NW9         N/A
MANITOWOC      CLOUDY    62  50  64 NW16G23   30.01R
SHEBOYGAN      SUNNY     64  54  69 W15       30.01S
$$

LMZ563-521-522-541>543-251600-
LAKESHORE

STATION/POSITION TIME  TEMP    WIND        PRES    VSBY  WAVE
                       AIR SEA DIR/SP/G                  HT/PER
                 (UTC) (F)     (DEG/KT/KT) (MB)    (MI)  (FT/S)
SHEBOYGAN LKSHOR 1500   62     300/ 16/ 21 1016.0R
KEWAUNEE LKSHORE 1448   59     300/  8/ 12 1015.2R
NORTHPORT PIER   1430   59     330/  8/ 11 1014.9R
N MID LAKE BUOY  1450   56 57  330/  6/  8 1015.3R         1/ 3
S GREEN BAY BUOY 1500   59     300/ 10/ 12 1015.5
CHAMBERS ISLAND  1440   60     250/  5/  7 1014.9R
MENOMINEE LKSHOR 1448          300/  6/  9 1014.5R
$$




USA.gov is the U.S. government's official web portal to all federal, state and local government web resources and services.